STARLINK-35647

Last updated on Wed Dec 10 2025 00:02:05 GMT+0000 (Coordinated Universal Time)

1 66388U 25257J 25343.12174356 .00019200 00000+0 49046-3 0 9995 2 66388 53.1581 281.4976 0001077 1.9018 358.1991 15.39514665 5812
UTC large
Height (km)
Speed (km/s)
/
Latitude / Longitude
Inclination (degrees)
Orbital Period (minutes)
Azimuth
Elevation
Range (km)
Doppler Factor

Next 0 passes for location: London (51.5072 / 0.1276)

Sorry there are no passes over London.